TimeCST,TemperatureF,Dew PointF,Humidity,Sea Level PressureIn,VisibilityMPH,Wind Direction,Wind SpeedMPH,Gust SpeedMPH,PrecipitationIn,Events,Conditions,WindDirDegrees,DateUTC
12:55 AM,30.0,28.0,92,30.19,5.0,NNW,12.7,20.7,N/A,,Overcast,330,2013-02-08 06:55:00
1:55 AM,30.0,27.0,88,30.21,5.0,NNW,12.7,19.6,N/A,,Overcast,330,2013-02-08 07:55:00
2:55 AM,30.0,27.0,88,30.23,5.0,NNW,10.4,-,N/A,,Overcast,340,2013-02-08 08:55:00
3:38 AM,30.2,26.6,86,30.21,6.0,NNW,9.2,19.6,N/A,,Overcast,340,2013-02-08 09:38:00
3:55 AM,28.9,27.0,92,30.26,5.0,NNW,12.7,18.4,N/A,,Overcast,340,2013-02-08 09:55:00
4:55 AM,28.9,26.1,89,30.28,6.0,NNW,9.2,-,N/A,,Overcast,340,2013-02-08 10:55:00
5:55 AM,28.9,25.0,85,30.30,6.0,North,9.2,-,N/A,,Overcast,350,2013-02-08 11:55:00
6:55 AM,28.0,24.1,85,30.34,7.0,North,10.4,-,N/A,,Overcast,10,2013-02-08 12:55:00
7:55 AM,28.0,24.1,85,30.36,8.0,North,6.9,-,N/A,,Overcast,10,2013-02-08 13:55:00
8:55 AM,28.0,24.1,85,30.38,7.0,North,6.9,-,N/A,,Overcast,10,2013-02-08 14:55:00
9:55 AM,28.0,24.1,85,30.39,7.0,NNE,6.9,-,N/A,,Overcast,30,2013-02-08 15:55:00
10:55 AM,28.0,24.1,85,30.40,8.0,NNE,5.8,-,N/A,,Overcast,20,2013-02-08 16:55:00
11:55 AM,28.0,24.1,85,30.39,9.0,ENE,6.9,-,N/A,,Overcast,70,2013-02-08 17:55:00
12:55 PM,28.0,24.1,85,30.38,9.0,Calm,Calm,-,N/A,,Overcast,0,2013-02-08 18:55:00
1:55 PM,28.9,25.0,85,30.38,9.0,ENE,3.5,-,N/A,,Overcast,60,2013-02-08 19:55:00
2:55 PM,28.9,25.0,85,30.39,9.0,Calm,Calm,-,N/A,,Overcast,0,2013-02-08 20:55:00
3:55 PM,28.9,25.0,85,30.40,10.0,East,3.5,-,N/A,,Overcast,80,2013-02-08 21:55:00
4:55 PM,28.9,25.0,85,30.37,9.0,ESE,5.8,-,N/A,,Overcast,120,2013-02-08 22:55:00
5:55 PM,28.0,25.0,88,30.37,9.0,SE,6.9,-,N/A,,Overcast,140,2013-02-08 23:55:00
6:36 PM,28.4,24.8,86,30.32,9.0,SE,8.1,-,N/A,,Overcast,130,2013-02-09 00:36:00
6:55 PM,28.0,25.0,88,30.37,9.0,ESE,9.2,-,N/A,,Overcast,110,2013-02-09 00:55:00
7:55 PM,28.0,25.0,88,30.37,9.0,SSE,9.2,-,N/A,,Overcast,150,2013-02-09 01:55:00
8:55 PM,28.0,25.0,88,30.37,9.0,SE,10.4,-,N/A,,Overcast,130,2013-02-09 02:55:00
9:55 PM,28.0,25.0,88,30.37,9.0,SSE,11.5,-,N/A,,Overcast,150,2013-02-09 03:55:00
10:55 PM,28.0,25.0,88,30.34,7.0,SSE,11.5,-,N/A,,Overcast,160,2013-02-09 04:55:00
11:55 PM,28.0,25.0,88,30.35,8.0,SE,11.5,-,N/A,,Overcast,140,2013-02-09 05:55:00